Content
SEND FEEDBACK

Daily
Averages
Monthly
Summary
France

ANGERS, FRANCE


Home > Europe > France
Elevation: 121 feet     Latitude: 47 30N     Longitude: 000 30W

WEATHER
 
SELECT A DAY
Number of Records: 97,359;   Date Range: 7/1/96 - 7/9/14
 
SHARE

PRINT THIS DATA

[ ← Previous Day ]
WEATHER ALMANAC - FEBRUARY 13, 2013
[ Next Day → ]
[ °C ]   °F
Weather ElementAverageHighLow
Temperature41.4 °F46.4 °F (3:00 pm)37.4 °F (3:30 am)
Dewpoint36.8 °F41 °F (6:30 pm)30.2 °F (11:30 am)
Humidity84.2 %100 % (3:30 am)51 % (1:00 pm)
Barometer30.15 in30.21 in (12:00 pm)30.06 in (12:30 am)
Wind Speed4.8 mph8.1 mph (10:30 pm)
Weather ElementAverage
Visibility3.5 mi
Wind DirectionESE (124.6 °)

Weather ElementTotal
Precipitation---
Heating Degree Days23.1 (Base 65)
Averaged from 52 records on February 13, 2013
WEATHER CONDITIONS BREAKOUT
WIND DIRECTION BREAKOUT
WEATHER BY HOUR - FEBRUARY 13, 2013
[ °C ]   °F
Local TimeTemperatureDewpointHumidityBarometerVisibilityWind DirectionWind SpeedGust SpeedPrecipitationEventsConditions
12:30 AM41.0 °F37.4 °F87 %30.06 in3.7 miNW (320°)2.3 mph
1:00 AM40.0 °F38.0 °F91 %30.10 in4.0 miNNW (330°)3.5 mphOvercast
1:00 AM41.0 °F39.2 °F93 %30.09 in3.7 miNNW (330°)3.5 mph
1:30 AM41.0 °F37.4 °F87 %30.09 in3.7 miNW (320°)3.5 mphMostly Cloudy
2:00 AM39.2 °F37.4 °F93 %30.09 in3.7 miNNW (340°)3.5 mphMostly Cloudy
2:30 AM39.2 °F37.4 °F93 %30.09 in2.8 miNorth (360°)2.3 mphMist
3:00 AM39.2 °F37.4 °F93 %30.09 inNorth (10°)2.3 mphMist
3:30 AM37.4 °F37.4 °F100 %30.09 inVariable2.3 mphOvercast
4:00 AM39.2 °F39.2 °F100 %30.09 inNNE (30°)3.5 mphOvercast
4:30 AM39.2 °F39.2 °F100 %30.09 inNE (50°)3.5 mphMostly Cloudy
5:00 AM39.2 °F37.4 °F93 %30.09 in3.7 miENE (60°)4.6 mphMostly Cloudy
5:30 AM39.2 °F35.6 °F87 %30.09 in3.7 miNE (50°)3.5 mphMostly Cloudy
6:00 AM39.2 °F35.6 °F87 %30.12 in3.1 miVariable2.3 mphMostly Cloudy
6:30 AM39.2 °F35.6 °F87 %30.12 in3.1 miVariable2.3 mph
7:00 AM38.0 °F35.0 °F84 %30.14 in4.0 miENE (60°)4.6 mphPartly Cloudy
7:00 AM37.4 °F35.6 °F93 %30.12 in3.7 miENE (60°)4.6 mph
7:30 AM39.2 °F35.6 °F87 %30.12 in3.7 miNE (50°)4.6 mph
8:00 AM39.2 °F33.8 °F81 %30.12 in3.7 miENE (70°)5.8 mph
8:30 AM37.4 °F33.8 °F87 %30.15 in3.7 miENE (70°)5.8 mph
9:00 AM37.4 °F32.0 °F81 %30.15 in3.7 miENE (70°)6.9 mph
9:30 AM37.4 °F32.0 °F81 %30.15 in3.7 miESE (110°)6.9 mph
10:14 AM39.2 °F32.0 °F75 %30.18 in3.7 miEast (100°)6.9 mph
10:30 AM39.2 °F32.0 °F75 %30.18 in5.6 miEast (100°)5.8 mph
11:00 AM42.8 °F32.0 °F66 %30.18 in5.6 miESE (110°)5.8 mph
11:30 AM42.8 °F30.2 °F61 %30.18 in5.6 miESE (120°)4.6 mph
12:00 PM42.8 °F32.0 °F66 %30.21 in5.6 miESE (120°)4.6 mph
12:30 PM44.6 °F32.0 °F61 %30.21 inESE (110°)3.5 mphClear
1:00 PM44.0 °F32.0 °F51 %30.21 in7.0 miSouth (170°)3.5 mphClear
1:00 PM44.6 °F32.0 °F61 %30.21 inSSE (150°)3.5 mphClear
1:30 PM44.6 °F33.8 °F66 %30.18 inVariable3.5 mphClear
2:00 PM44.6 °F35.6 °F71 %30.18 inSE (130°)5.8 mphClear
2:30 PM44.6 °F35.6 °F71 %30.18 inSE (130°)5.8 mphClear
3:00 PM46.4 °F35.6 °F66 %30.18 inSSE (150°)3.5 mphClear
3:30 PM44.6 °F35.6 °F71 %30.18 in5.0 miSouth (190°)3.5 mphMostly Cloudy
4:00 PM44.6 °F35.6 °F71 %30.18 in5.0 miVariable3.5 mphMostly Cloudy
4:30 PM44.6 °F37.4 °F76 %30.18 in3.1 miVariable3.5 mphRainLight Rain
5:00 PM44.6 °F39.2 °F81 %30.15 in3.7 miESE (120°)4.6 mphMostly Cloudy
5:30 PM44.6 °F39.2 °F81 %30.15 in3.7 miESE (110°)5.8 mphMostly Cloudy
5:41 PM44.6 °F39.2 °F81 %30.15 in3.1 miSE (130°)4.6 mphRainLight Rain
6:00 PM42.8 °F39.2 °F87 %30.18 in3.1 miESE (110°)5.8 mphRainLight Rain
6:30 PM42.8 °F41.0 °F93 %30.18 in2.5 miESE (120°)5.8 mphOvercast
7:00 PM42.0 °F41.0 °F96 %30.19 in2.0 miSE (130°)6.9 mphRainLight Rain
7:00 PM42.8 °F41.0 °F93 %30.18 in2.5 miSE (130°)6.9 mphOvercast
7:30 PM42.8 °F41.0 °F93 %30.18 in3.1 miSE (140°)4.6 mphOvercast
8:00 PM42.8 °F39.2 °F87 %30.18 in2.5 miSSE (150°)5.8 mphOvercast
8:30 PM42.8 °F41.0 °F93 %30.18 in1.9 miSSE (150°)6.9 mphLight Drizzle
9:00 PM41.0 °F41.0 °F100 %30.18 in1.2 miSSE (150°)6.9 mphLight Drizzle
9:30 PM41.0 °F41.0 °F100 %30.18 in1.2 miSSE (150°)6.9 mphLight Drizzle
10:00 PM41.0 °F41.0 °F100 %30.18 in1.1 miSSE (150°)6.9 mphLight Drizzle
10:30 PM41.0 °F41.0 °F100 %30.18 in1.9 miSSE (160°)8.1 mphLight Drizzle
11:00 PM41.0 °F41.0 °F100 %30.18 in1.9 miSSE (150°)5.8 mphMostly Cloudy
11:30 PM41.0 °F41.0 °F100 %30.18 in2.2 miSSE (160°)6.9 mphMostly Cloudy
Hourly data recorded from LFJR, located miles away from Angers, France







STORIES FROM OUR PARTNERS